Location: Crescent
(42.8242°N, 73.7329°W)
Time: 20:02:04
(UTC+00:00)

Transit 2A - Pass Details

Date: 07 November 2024
Orbit: 593 x 956 km, 66.7° (Epoch: 14 December)

Event Time Altitude Azimuth Distance (km) Brightness Sun altitude
Rises 10:27:21 0° 205° (SSW) 3,560 9.3 -13.2°
Reaches altitude 10° 10:29:51 10° 204° (SSW) 2,646 8.6 -12.7°
Maximum altitude 10:36:06 79° 118° (ESE) 976 6.6 -11.6°
Drops below altitude 10° 10:42:25 10° 33° (NNE) 2,672 9.1 -10.4°
Sets 10:44:57 0° 33° (NNE) 3,597 9.7 -10.0°
